Slayton, MN

12:11 PM CST on December 16, 2017 (GMT -0600)
Slayton

Weather History for KDVP - April, 2013

Change the Weather History Date:

Wednesday, April 17, 2013

  Actual Average (KOTG) Record (KOTG)
Temperature  
Mean Temperature 32 °F -  
Max Temperature 35 °F 54 °F 78 °F (2016)
Min Temperature 30 °F 34 °F 21 °F (1990)
Degree Days  
Heating Degree Days 33    
Moisture  
Dew Point 31 °F    
Average Humidity 95    
Maximum Humidity 100    
Minimum Humidity 87    
Precipitation  
Precipitation 0.00 in - - ()
Sea Level Pressure  
Sea Level Pressure 30.11 in    
Wind  
Wind Speed 11 mph (NNE)    
Max Wind Speed 22 mph    
Max Gust Speed 23 mph    
Visibility 7 miles    
Events Rain , Snow , Thunderstorm    
Averages and records for this station are not official NWS values.
T = Trace of Precipitation, MM = Missing Value Source: NWS Daily Summary

Daily Weather History Graph

Daily Weather History Graph

Search for Another Location

Airport or City:

Trip Planner

Search our weather history database for the weather conditions in past years. The results will help you decide how hot, cold, wet, or windy it might be!

Date:

Astronomy

Apr. 17, 2013 Rise Set
Actual Time 6:36 AM CDT 8:09 PM CDT
Civil Twilight 6:05 AM CDT 8:40 PM CDT
Nautical Twilight 5:29 AM CDT 9:17 PM CDT
Astronomical Twilight 4:50 AM CDT 9:56 PM CDT
Moon 11:47 AM CDT (4/17) 1:52 AM CDT (4/17)
Length of Visible Light 14h 34m
Length of Day
13h 33m
Waxing Crescent, 42% of the Moon is Illuminated
Apr 17
Waxing Crescent
Apr 18
First Quarter
Apr 25
Full
May 2
Last Quarter
May 9
New

Hourly Weather History & Observations

Time (CDT) Temp. Windchill Dew Point Humidity Pressure Visibility Wind Dir Wind Speed Gust Speed Precip Events Conditions
12:15 AM 31.6 °F 23.7 °F 30.2 °F 94% 30.28 in 10.0 mi NNE 9.2 mph - N/A   Overcast
12:35 AM 31.5 °F 24.9 °F 30.0 °F 94% 30.29 in 10.0 mi North 6.9 mph - N/A   Overcast
12:55 AM 31.5 °F 24.9 °F 30.0 °F 94% 30.29 in 10.0 mi North 6.9 mph - N/A   Overcast
1:15 AM 31.1 °F 23.7 °F 29.8 °F 95% 30.29 in 10.0 mi North 8.1 mph - N/A   Overcast
1:35 AM 31.1 °F 23.7 °F 29.8 °F 95% 30.29 in 10.0 mi NNE 8.1 mph - N/A   Overcast
1:55 AM 31.1 °F 23.7 °F 29.8 °F 95% 30.29 in 10.0 mi North 8.1 mph - N/A   Overcast
2:15 AM 31.1 °F 23.1 °F 29.8 °F 95% 30.29 in 10.0 mi North 9.2 mph - N/A   Overcast
2:35 AM 30.9 °F 22.2 °F 29.7 °F 95% 30.28 in 10.0 mi North 10.4 mph - N/A   Overcast
2:55 AM 30.9 °F 22.2 °F 29.7 °F 95% 30.29 in 10.0 mi North 10.4 mph - N/A   Overcast
3:15 AM 30.7 °F 24.1 °F 29.3 °F 94% 30.28 in 10.0 mi North 6.9 mph - N/A   Overcast
3:35 AM 30.7 °F 22.0 °F 29.3 °F 94% 30.26 in 10.0 mi NNE 10.4 mph - N/A   Overcast
3:55 AM 30.7 °F 22.6 °F 29.3 °F 94% 30.24 in 10.0 mi North 9.2 mph - N/A   Overcast
4:15 AM 30.6 °F 21.8 °F 29.3 °F 95% 30.24 in 10.0 mi North 10.4 mph - N/A   Overcast
4:35 AM 30.2 °F 20.8 °F 28.9 °F 95% 30.21 in 10.0 mi North 11.5 mph - N/A   Overcast
4:55 AM 30.2 °F 19.8 °F 29.3 °F 96% 30.21 in 10.0 mi North 13.8 mph - N/A   Overcast
5:15 AM 30.2 °F 20.2 °F 28.9 °F 95% 30.19 in 10.0 mi North 12.7 mph - N/A   Overcast
5:35 AM 30.6 °F 22.4 °F 28.8 °F 93% 30.21 in 10.0 mi North 9.2 mph - N/A   Overcast
5:55 AM 30.6 °F 23.1 °F 28.8 °F 93% 30.23 in 10.0 mi NNE 8.1 mph - N/A   Overcast
6:15 AM 30.6 °F 24.7 °F 29.1 °F 94% 30.26 in 10.0 mi NE 5.8 mph - N/A   Overcast
6:35 AM 30.6 °F 22.4 °F 29.1 °F 94% 30.22 in 10.0 mi North 9.2 mph - N/A   Overcast
6:55 AM 30.2 °F 20.2 °F 29.1 °F 96% 30.19 in 10.0 mi North 12.7 mph 17.3 mph N/A   Overcast
7:15 AM 30.2 °F 20.2 °F 29.1 °F 96% 30.20 in 10.0 mi North 12.7 mph - N/A   Overcast
7:35 AM 30.4 °F 22.2 °F 29.3 °F 96% 30.22 in 10.0 mi North 9.2 mph - N/A   Overcast
7:55 AM 30.6 °F 22.4 °F 29.3 °F 95% 30.22 in 10.0 mi North 9.2 mph - N/A   Overcast
8:15 AM 30.9 °F 22.8 °F 29.3 °F 94% 30.22 in 10.0 mi North 9.2 mph - N/A   Overcast
8:35 AM 31.1 °F 23.1 °F 29.7 °F 94% 30.24 in 10.0 mi North 9.2 mph - N/A   Overcast
9:15 AM 31.5 °F 21.8 °F 30.0 °F 94% 30.18 in 10.0 mi NNE 12.7 mph - N/A   Overcast
9:35 AM 32.0 °F 23.6 °F 30.0 °F 92% 30.16 in 10.0 mi NNE 10.4 mph - N/A   Overcast
9:55 AM 32.2 °F 23.2 °F 30.2 °F 92% 30.14 in 10.0 mi NNE 11.5 mph - N/A   Overcast
10:15 AM 32.9 °F 24.1 °F 29.8 °F 88% 30.12 in 10.0 mi NNE 11.5 mph 18.4 mph N/A   Overcast
10:35 AM 32.9 °F 24.1 °F 29.5 °F 87% 30.13 in 10.0 mi NE 11.5 mph - N/A   Overcast
10:55 AM 32.9 °F 23.2 °F 29.5 °F 87% 30.12 in 10.0 mi NNE 13.8 mph 20.7 mph N/A   Overcast
11:15 AM 33.1 °F 24.9 °F 30.0 °F 89% 30.13 in 10.0 mi NNE 10.4 mph 17.3 mph N/A   Overcast
11:35 AM 33.1 °F 24.9 °F 30.0 °F 89% 30.14 in 10.0 mi NNE 10.4 mph - N/A   Overcast
11:56 AM 33.3 °F 25.7 °F 30.2 °F 89% 30.14 in 10.0 mi NNE 9.2 mph - N/A   Overcast
12:15 PM 33.3 °F 24.6 °F 30.7 °F 90% 30.13 in 7.0 mi NNE 11.5 mph 16.1 mph N/A   Overcast
12:36 PM 33.4 °F 24.8 °F 30.9 °F 90% 30.12 in 7.0 mi NNE 11.5 mph - N/A   Overcast
12:55 PM 33.8 °F 26.4 °F 31.1 °F 90% 30.09 in 5.0 mi NNE 9.2 mph - N/A   Overcast
1:15 PM 34.5 °F 27.3 °F 31.1 °F 87% 30.08 in 10.0 mi NNE 9.2 mph 16.1 mph N/A   Overcast
1:35 PM 34.0 °F 24.6 °F 31.1 °F 89% 30.06 in 10.0 mi North 13.8 mph - N/A   Overcast
1:55 PM 33.8 °F 24.8 °F 31.5 °F 91% 30.07 in 10.0 mi North 12.7 mph - N/A   Overcast
2:16 PM 33.8 °F 24.3 °F 31.5 °F 91% 30.06 in 10.0 mi North 13.8 mph - N/A   Overcast
2:35 PM 33.8 °F 24.3 °F 31.5 °F 91% 30.05 in 10.0 mi North 13.8 mph - N/A   Overcast
2:55 PM 34.2 °F 24.8 °F 31.8 °F 91% 30.03 in 10.0 mi North 13.8 mph 18.4 mph N/A   Overcast
3:35 PM 34.9 °F 25.7 °F 32.0 °F 89% 30.00 in 10.0 mi NNE 13.8 mph 19.6 mph N/A   Overcast
3:55 PM 34.9 °F 25.7 °F 32.0 °F 89% 30.00 in 10.0 mi NNE 13.8 mph 20.7 mph N/A   Overcast
4:15 PM 34.7 °F 25.1 °F 32.0 °F 90% 30.01 in 7.0 mi NNE 15.0 mph 20.7 mph N/A   Overcast
4:35 PM 33.8 °F 25.3 °F 32.2 °F 94% 30.00 in 3.0 mi NNE 11.5 mph - N/A   Overcast
4:55 PM 33.8 °F 24.3 °F 32.7 °F 96% 29.98 in 3.0 mi NNE 13.8 mph 17.3 mph N/A   Overcast
5:15 PM 33.4 °F 25.4 °F 32.9 °F 98% 29.99 in 2.5 mi NNE 10.4 mph 18.4 mph N/A   Overcast
5:35 PM 33.3 °F 24.1 °F 32.9 °F 99% 29.98 in 2.5 mi NNE 12.7 mph 21.9 mph N/A   Overcast
5:55 PM 33.1 °F 23.4 °F 32.9 °F 99% 29.97 in 1.8 mi NNE 13.8 mph 18.4 mph N/A   Overcast
6:15 PM 33.1 °F 23.4 °F 33.1 °F 100% 29.96 in 2.0 mi NNE 13.8 mph 18.4 mph N/A   Overcast
6:35 PM 33.1 °F 23.4 °F 33.1 °F 100% 29.97 in 2.0 mi NNE 13.8 mph 19.6 mph N/A   Overcast
6:55 PM 32.9 °F 23.2 °F 32.9 °F 100% 29.98 in 2.0 mi North 13.8 mph - N/A   Overcast
7:15 PM 32.9 °F 22.4 °F 32.9 °F 100% 29.98 in 1.2 mi North 16.1 mph - N/A   Light Drizzle
7:34 PM 32.5 °F 22.3 °F 32.5 °F 100% 29.98 in 1.8 mi North 15.0 mph 18.4 mph N/A Thunderstorm Unknown
7:55 PM 32.5 °F 25.5 °F 32.5 °F 100% 30.03 in 3.0 mi NNE 8.1 mph - N/A   Light Drizzle
8:15 PM 32.2 °F 19.7 °F 32.2 °F 100% 29.94 in 2.0 mi North 21.9 mph - N/A Rain Light Rain
8:35 PM 32.0 °F 20.5 °F 32.2 °F 100% 29.95 in 1.8 mi North 18.4 mph - N/A Snow Light Snow
8:55 PM 32.0 °F 20.1 °F 32.0 °F 100% 29.93 in 3.0 mi North 19.6 mph - N/A   Overcast
9:15 PM 32.0 °F 21.2 °F 32.0 °F 100% 29.96 in 4.0 mi North 16.1 mph 23.0 mph N/A   Overcast
9:35 PM 32.0 °F 20.8 °F 32.0 °F 100% 29.98 in 4.0 mi North 17.3 mph 21.9 mph N/A Snow Light Snow
9:55 PM 32.0 °F 20.8 °F 32.0 °F 100% 29.98 in 3.0 mi North 17.3 mph - N/A Snow Light Snow
10:15 PM 32.0 °F 21.6 °F 32.0 °F 100% 29.99 in 3.0 mi North 15.0 mph - N/A   Light Drizzle
10:35 PM 32.0 °F 21.6 °F 32.0 °F 100% 29.99 in 2.0 mi North 15.0 mph - N/A Snow Light Snow
10:54 PM 32.0 °F 21.2 °F 32.0 °F 100% 29.96 in 3.0 mi North 16.1 mph 21.9 mph N/A   Overcast
11:15 PM 32.0 °F 20.5 °F 32.0 °F 100% 29.96 in 4.0 mi North 18.4 mph - N/A   Light Drizzle
11:35 PM 32.0 °F 20.5 °F 32.0 °F 100% 29.94 in 4.0 mi North 18.4 mph 21.9 mph N/A   Light Drizzle
11:55 PM 32.0 °F 20.8 °F 32.0 °F 100% 29.93 in 3.0 mi North 17.3 mph - N/A   Light Drizzle